カタログに戻る

STARLINK-11337

運用中通信VLEO
NORAD 61940·PAYLOAD·🇺🇸 United States

打ち上げ Nov 14, 2024 から Vandenberg Space Force Base

Loading…

次のパス (今後24時間)

TLE

最新Source: CelesTrak SupGP

元期: Sep 15, 2026, 03:21 UTC

1 61940C 24209B   26258.14006944  .00055183  00000+0  45443-3 0  2580
2 61940  53.1571 157.0603 0001253  81.9277  42.3936 15.69688587    12

AllMySatでSTARLINK-11337をリアルタイム追跡

Download on the App Store